Weather History for KLXV - November, 2013

Change the Weather History Date:

Saturday, November 9, 2013

  Actual Average Record
Temperature  
Mean Temperature 35 °F -  
Max Temperature 48 °F 39 °F 56 °F (1978)
Min Temperature 22 °F 15 °F -6 °F (1977)
Degree Days  
Heating Degree Days 30 38  
Month to date heating degree days 357 325  
Since 1 July heating degree days 2392 2514  
Cooling Degree Days 0 0  
Month to date cooling degree days 0 0  
Year to date cooling degree days 0 0  
Moisture  
Dew Point 12 °F    
Average Humidity 42    
Maximum Humidity 60    
Minimum Humidity 23    
Precipitation  
Precipitation 0.00 in 0.03 in 0.39 in (1985)
Month to date precipitation 0.28 0.26  
Year to date precipitation 16.15 11.20  
Sea Level Pressure  
Sea Level Pressure 30.09 in    
Wind  
Wind Speed 8 mph (North)    
Max Wind Speed 17 mph    
Max Gust Speed 24 mph    
Visibility 10 miles    
Events      
T = Trace of Precipitation, MM = Missing Value Source: NWS Daily Summary

Daily Weather History Graph

Daily Weather History Graph

Search for Another Location

Airport or City:

Trip Planner

Search our weather history database for the weather conditions in past years. The results will help you decide how hot, cold, wet, or windy it might be!

Date:

Astronomy

Nov. 09, 2013 Rise Set
Actual Time 6:42 AM MST 4:55 PM MST
Civil Twilight 6:13 AM MST 5:23 PM MST
Nautical Twilight 5:41 AM MST 5:55 PM MST
Astronomical Twilight 5:10 AM MST 6:27 PM MST
Moon 12:21 PM MST (11/9) 11:28 PM MST (11/9)
Length of Visible Light 11h 09m
Length of Day
10h 13m
Waxing Crescent, 45% of the Moon is Illuminated
Nov 9
Waxing Crescent
Nov 9
First Quarter
Nov 17
Full
Nov 25
Last Quarter
Dec 2
New

Hourly Weather History & Observations

Time (MST) Temp. Windchill Dew Point Humidity Pressure Visibility Wind Dir Wind Speed Gust Speed Precip Events Conditions
12:53 AM 25.0 °F 17.1 °F 12.0 °F 58% 30.03 in 10.0 mi ENE 6.9 mph - N/A   Clear
1:53 AM 27.0 °F 23.0 °F 12.9 °F 56% 30.02 in 10.0 mi Variable 3.5 mph - N/A   Clear
2:53 AM 30.9 °F 21.7 °F 12.0 °F 46% 29.97 in 10.0 mi NNW 11.5 mph - N/A   Clear
3:53 AM 32.0 °F 23.0 °F 10.9 °F 42% 29.98 in 10.0 mi North 11.5 mph - N/A   Clear
4:53 AM 30.9 °F 20.2 °F 10.9 °F 43% 30.04 in 10.0 mi NNE 15.0 mph - N/A   Clear
5:53 AM 30.0 °F 20.5 °F 10.0 °F 43% 30.08 in 10.0 mi NE 11.5 mph - N/A   Clear
6:53 AM 27.0 °F 17.3 °F 10.9 °F 51% 30.11 in 10.0 mi ENE 10.4 mph - N/A   Clear
7:53 AM 30.9 °F 22.8 °F 10.9 °F 43% 30.12 in 10.0 mi NNE 9.2 mph - N/A   Clear
8:53 AM 34.0 °F 25.5 °F 10.9 °F 38% 30.11 in 10.0 mi NNE 11.5 mph - N/A   Clear
9:53 AM 39.0 °F 32.3 °F 12.0 °F 33% 30.10 in 10.0 mi North 10.4 mph - N/A   Clear
10:53 AM 43.0 °F 37.7 °F 12.0 °F 28% 30.07 in 10.0 mi NNW 9.2 mph 19.6 mph N/A   Clear
11:53 AM 43.0 °F 37.7 °F 12.9 °F 30% 30.06 in 10.0 mi NNW 9.2 mph 19.6 mph N/A   Clear
12:53 PM 46.0 °F 40.6 °F 12.9 °F 26% 30.04 in 10.0 mi NNW 11.5 mph 21.9 mph N/A   Clear
1:53 PM 46.9 °F - 12.0 °F 24% 30.03 in 10.0 mi NNW 9.2 mph - N/A   Clear
2:53 PM 46.9 °F - 10.9 °F 23% 30.01 in 10.0 mi NW 9.2 mph 18.4 mph N/A   Clear
3:53 PM 46.0 °F 41.4 °F 12.0 °F 25% 30.03 in 10.0 mi NNW 9.2 mph - N/A   Clear
4:53 PM 39.9 °F 34.5 °F 12.9 °F 33% 30.08 in 10.0 mi North 8.1 mph - N/A   Clear
5:53 PM 34.0 °F 26.6 °F 12.9 °F 42% 30.16 in 10.0 mi NE 9.2 mph - N/A   Clear
6:53 PM 28.9 °F 25.2 °F 14.0 °F 54% 30.23 in 10.0 mi NE 3.5 mph - N/A   Clear
7:53 PM 28.9 °F 23.9 °F 14.0 °F 54% 30.21 in 10.0 mi NNE 4.6 mph - N/A   Clear
8:53 PM 27.0 °F 21.6 °F 14.0 °F 58% 30.21 in 10.0 mi NNE 4.6 mph - N/A   Clear
9:53 PM 27.0 °F - 14.0 °F 58% 30.19 in 10.0 mi Calm Calm - N/A   Clear
10:53 PM 27.0 °F 20.5 °F 12.9 °F 56% 30.16 in 10.0 mi NE 5.8 mph - N/A   Clear
11:53 PM 23.0 °F 17.0 °F 12.9 °F 65% 30.18 in 10.0 mi NNE 4.6 mph - N/A   Clear